Lakehurst NAS, NJ

4:09 AM EDT on August 19, 2017 (GMT -0400)
Lakehurst Naes

Weather History for KNEL - November, 2012

Change the Weather History Date:

Thursday, November 1, 2012

  Actual Average Record
Temperature  
Mean Temperature 44 °F -  
Max Temperature 44 °F 59 °F 73 °F (2005)
Min Temperature 36 °F 42 °F 28 °F (2016)
Degree Days  
Heating Degree Days 21    
Moisture  
Dew Point 37 °F    
Average Humidity 79    
Maximum Humidity 97    
Minimum Humidity 59    
Precipitation  
Precipitation 0.00 in - - ()
Sea Level Pressure  
Sea Level Pressure 29.62 in    
Wind  
Wind Speed 4 mph (WSW)    
Max Wind Speed 14 mph    
Max Gust Speed 20 mph    
Visibility 10 miles    
Events      
Averages and records for this station are not official NWS values.
T = Trace of Precipitation, MM = Missing Value Source: NWS Daily Summary

Daily Weather History Graph

Daily Weather History Graph

Search for Another Location

Airport or City:

Trip Planner

Search our weather history database for the weather conditions in past years. The results will help you decide how hot, cold, wet, or windy it might be!

Date:

Astronomy

Nov. 01, 2012 Rise Set
Actual Time 7:27 AM EDT 5:54 PM EDT
Civil Twilight 6:58 AM EDT 6:22 PM EDT
Nautical Twilight 6:26 AM EDT 6:54 PM EDT
Astronomical Twilight 5:55 AM EDT 7:26 PM EDT
Moon 7:49 PM EDT (11/1) 9:57 AM EDT (11/1)
Length of Visible Light 11h 23m
Length of Day
10h 27m
Waning Gibbous, 93% of the Moon is Illuminated
Nov 1
Waning Gibbous
Nov 6
Last Quarter
Nov 13
New
Nov 20
First Quarter
Nov 28
Full

Hourly Weather History & Observations

Time (EDT) Temp. Windchill Dew Point Humidity Pressure Visibility Wind Dir Wind Speed Gust Speed Precip Events Conditions
12:00 AM 37.9 °F - 36.0 °F 93% 29.61 in 10.0 mi Calm Calm - N/A   Clear
1:00 AM 37.0 °F - 36.0 °F 96% 29.60 in 10.0 mi Calm Calm - N/A   Clear
2:00 AM 37.0 °F - 35.1 °F 93% 29.60 in 10.0 mi Calm Calm - N/A   Clear
3:00 AM 37.0 °F - 35.1 °F 93% 29.60 in 10.0 mi Calm Calm - N/A   Clear
4:00 AM 36.0 °F - 35.1 °F 97% 29.60 in 10.0 mi Calm Calm - N/A   Clear
5:00 AM 36.0 °F 32.1 °F 34.0 °F 93% 29.61 in 10.0 mi SW 4.6 mph - N/A   Clear
6:00 AM 37.0 °F 32.4 °F 35.1 °F 93% 29.61 in 10.0 mi WSW 5.8 mph - N/A   Clear
7:00 AM 37.9 °F 34.4 °F 35.1 °F 89% 29.60 in 10.0 mi WSW 4.6 mph - N/A   Clear
8:00 AM 37.9 °F - 36.0 °F 93% 29.62 in 10.0 mi Calm Calm - N/A   Mostly Cloudy
9:00 AM 45.0 °F 41.2 °F 39.0 °F 80% 29.62 in 10.0 mi WSW 6.9 mph - N/A   Mostly Cloudy
10:00 AM 46.9 °F - 39.0 °F 74% 29.63 in 10.0 mi WSW 8.1 mph - N/A   Mostly Cloudy
11:00 AM 51.1 °F - 37.9 °F 61% 29.62 in 10.0 mi West 13.8 mph 19.6 mph N/A   Overcast
12:00 PM 50.0 °F - 37.0 °F 61% 29.63 in 10.0 mi West 12.7 mph - N/A   Overcast
1:00 PM 52.0 °F - 37.9 °F 59% 29.60 in 10.0 mi West 9.2 mph 19.6 mph N/A   Scattered Clouds
2:00 PM 51.1 °F - 37.9 °F 61% 29.60 in 10.0 mi West 13.8 mph - N/A   Overcast
3:00 PM 51.1 °F - 37.0 °F 59% 29.60 in 10.0 mi West 10.4 mph - N/A   Overcast
4:00 PM 50.0 °F - 37.9 °F 63% 29.60 in 10.0 mi West 8.1 mph - N/A   Overcast
5:00 PM 50.0 °F - 39.0 °F 66% 29.61 in 10.0 mi West 6.9 mph - N/A   Overcast
8:00 PM 48.0 °F - 39.0 °F 71% 29.64 in 10.0 mi WSW 5.8 mph - N/A   Overcast
9:00 PM 45.0 °F 41.8 °F 39.0 °F 80% 29.64 in 10.0 mi WSW 5.8 mph - N/A   Clear
10:00 PM 45.0 °F 43.5 °F 39.0 °F 80% 29.65 in 10.0 mi WSW 3.5 mph - N/A   Overcast
11:00 PM 45.0 °F 43.5 °F 39.9 °F 82% 29.65 in 10.0 mi WSW 3.5 mph - N/A   Overcast